CW3904 Weather Reports


time (UTC)temp
F
wind
direction
speed
knots
gust
knots
rain 1hr
in
rain 24hr
in
rain mn
in
humidity
%
barometer
mb
20260906114216 63 0 0.0 0.0 0.00 0.00 0.00 94 1017.5
20260906113415 63 0 0.0 0.0 0.00 0.00 0.00 94 1017.3
20260906112403 64 18 0.9 2.6 0.00 0.00 0.00 95 1017.1
20260906111603 64 18 0.9 2.6 0.00 0.00 0.00 95 1016.9
20260906111016 64 18 0.9 1.7 0.00 0.00 0.00 95 1016.6
20260906110003 64 0 0.0 0.0 0.00 0.00 0.00 95 1016.8
20260906105814 64 0 0.0 0.0 0.00 0.00 0.00 95 1016.8
20260906104803 64 18 0.9 2.6 0.00 0.00 0.00 94 1016.9
20260906104216 64 18 0.9 2.6 0.00 0.00 0.00 94 1016.7
20260906103415 64 18 0.0 2.6 0.00 0.00 0.00 94 1016.6
20260906102614 64 18 0.0 1.7 0.00 0.00 0.00 94 1016.6
20260906101603 65 0 0.0 0.0 0.00 0.00 0.00 94 1016.6
20260906101017 65 18 0.0 1.7 0.00 0.00 0.00 94 1016.6
20260906100215 65 18 0.0 1.7 0.00 0.00 0.00 93 1016.5
20260906095815 65 18 0.0 1.7 0.00 0.00 0.00 93 1016.5
20260906094803 65 18 0.9 2.6 0.00 0.00 0.00 93 1016.4
20260906094003 66 18 0.9 2.6 0.00 0.00 0.00 93 1016.1
20260906093416 66 18 0.9 2.6 0.00 0.00 0.00 93 1016.1
20260906092403 66 18 0.9 2.6 0.00 0.00 0.00 93 1016.1
20260906091813 66 21 0.9 2.6 0.00 0.00 0.00 92 1016.1
20260906090803 66 25 0.9 2.6 0.00 0.00 0.00 92 1016.0
20260906090216 66 23 0.0 1.7 0.00 0.00 0.00 92 1016.1
20260906085603 66 23 0.0 1.7 0.00 0.00 0.00 92 1016.0
20260906084803 66 23 0.0 2.6 0.00 0.00 0.00 92 1016.0
20260906084213 66 23 0.9 2.6 0.00 0.00 0.00 92 1015.9
20260906083203 67 27 0.9 2.6 0.00 0.00 0.00 91 1015.9
20260906082615 67 32 1.7 2.6 0.00 0.00 0.00 91 1015.9
20260906081603 67 32 0.9 1.7 0.00 0.00 0.00 91 1015.8
20260906080803 67 32 0.9 2.6 0.00 0.00 0.00 91 1015.8
20260906080003 67 32 0.9 2.6 0.00 0.00 0.00 91 1015.8
20260906075816 67 32 0.0 2.6 0.00 0.00 0.00 91 1015.8
20260906074803 68 32 0.9 2.6 0.00 0.00 0.00 90 1015.7
20260906074213 68 32 0.9 2.6 0.00 0.00 0.00 90 1015.8
20260906073203 68 19 0.0 2.6 0.00 0.00 0.00 90 1015.6
20260906072403 68 0 0.0 0.0 0.00 0.00 0.00 90 1015.6
20260906071815 68 0 0.0 0.0 0.00 0.00 0.00 90 1015.7
20260906070803 69 21 0.9 2.6 0.00 0.00 0.00 90 1015.6
20260906070212 69 22 0.9 2.6 0.00 0.00 0.00 90 1015.7
20260906065817 69 25 0.9 2.6 0.00 0.00 0.00 90 1015.6
20260906065015 70 22 0.9 2.6 0.00 0.00 0.00 90 1015.7
20260906064003 70 24 0.0 2.6 0.00 0.00 0.00 89 1015.8
20260906063203 70 24 0.9 2.6 0.00 0.00 0.00 89 1015.8
20260906062617 71 24 0.0 1.7 0.00 0.00 0.00 89 1015.9
20260906061815 71 0 0.0 0.0 0.00 0.00 0.00 89 1015.9
20260906060803 71 0 0.0 0.0 0.00 0.00 0.00 89 1015.9
20260906060213 71 0 0.0 0.0 0.00 0.00 0.00 89 1015.7
20260906055817 71 0 0.0 0.0 0.00 0.00 0.00 89 1015.6
20260906054803 70 0 0.0 0.0 0.00 0.00 0.00 89 1015.5
20260906054215 70 0 0.0 0.0 0.00 0.00 0.00 89 1015.4
20260906053203 70 0 0.0 0.0 0.00 0.00 0.00 88 1015.4
20260906052403 70 0 0.0 0.0 0.00 0.00 0.00 87 1015.3
20260906051816 71 0 0.0 0.0 0.00 0.00 0.00 87 1015.4
20260906051015 71 0 0.0 0.0 0.00 0.00 0.00 86 1015.3
20260906050003 71 0 0.0 0.0 0.00 0.00 0.00 86 1015.2
20260906045813 71 0 0.0 0.0 0.00 0.00 0.00 86 1015.2
20260906045017 71 0 0.0 0.0 0.00 0.00 0.00 86 1015.2
20260906044003 71 0 0.0 0.0 0.00 0.00 0.00 86 1015.1
20260906043414 71 0 0.0 0.0 0.00 0.00 0.00 86 1015.0
20260906042613 71 16 0.9 2.6 0.00 0.00 0.00 86 1015.0
20260906041817 71 23 0.9 2.6 0.00 0.00 0.00 86 1015.0
20260906040803 71 16 1.7 3.5 0.00 0.00 0.00 86 1015.1
20260906040219 71 20 0.9 3.5 0.00 0.00 0.00 86 1015.1
20260906035603 71 0 0.0 0.0 0.00 0.00 0.00 86 1015.0
20260906035017 71 25 0.9 2.6 0.00 0.00 0.00 85 1014.9
20260906034216 71 21 1.7 2.6 0.00 0.00 0.00 85 1014.9
20260906033415 72 28 0.9 3.5 0.00 0.00 0.00 85 1014.7
20260906032403 72 22 0.9 2.6 0.00 0.00 0.00 85 1014.8
20260906031812 72 20 0.9 3.5 0.00 0.00 0.00 85 1014.7
20260906031016 72 22 0.9 3.5 0.00 0.00 0.00 85 1014.8
20260906030003 72 18 0.9 2.6 0.00 0.00 0.00 85 1014.7
20260906025814 72 21 0.9 2.6 0.00 0.00 0.00 84 1014.7
20260906024803 72 24 0.9 2.6 0.00 0.00 0.00 84 1014.7
20260906024003 72 0 0.0 0.0 0.00 0.00 0.00 84 1014.8
20260906023415 72 0 0.0 0.0 0.00 0.00 0.00 84 1014.8
20260906022614 72 27 0.0 1.7 0.00 0.00 0.00 84 1014.8
20260906021813 72 23 0.9 2.6 0.00 0.00 0.00 83 1014.6
20260906021017 73 32 0.0 2.6 0.00 0.00 0.00 84 1014.5
20260906020215 73 26 0.0 2.6 0.00 0.00 0.00 84 1014.4
20260906015815 73 27 0.9 2.6 0.00 0.00 0.00 84 1014.3
20260906014803 73 18 0.9 3.5 0.00 0.00 0.00 84 1014.3
20260906014217 73 16 0.9 3.5 0.00 0.00 0.00 84 1014.2
20260906013416 73 25 0.9 3.5 0.00 0.00 0.00 84 1014.1
20260906012615 73 28 1.7 2.6 0.00 0.00 0.00 84 1014.1
20260906011603 74 19 1.7 3.5 0.00 0.00 0.00 85 1013.9
20260906011012 74 17 1.7 3.5 0.00 0.00 0.00 85 1013.8
20260906010003 74 12 1.7 3.5 0.00 0.00 0.00 85 1013.6
20260906005603 74 14 1.7 3.5 0.00 0.00 0.00 85 1013.6
20260906004805 74 19 1.7 3.5 0.00 0.00 0.00 85 1013.6
20260906004003 74 22 1.7 3.5 0.00 0.00 0.00 86 1013.5
20260906003417 75 20 0.9 3.5 0.00 0.00 0.00 87 1013.4
20260906002403 75 23 0.9 2.6 0.00 0.00 0.00 87 1013.2
20260906001814 75 18 0.9 1.7 0.00 0.00 0.00 87 1013.2
20260906000803 75 11 1.7 2.6 0.00 0.00 0.00 87 1013.1
20260906000219 75 6 1.7 3.5 0.00 0.00 0.00 87 1013.1
20260905235603 75 7 2.6 4.3 0.00 0.00 0.00 87 1013.0
20260905235015 75 6 2.6 4.3 0.00 0.00 0.00 87 1013.1
20260905234213 75 353 1.7 2.6 0.00 0.00 0.00 87 1013.0
20260905233417 75 358 1.7 2.6 0.00 0.00 0.00 86 1012.7
20260905232616 75 347 1.7 3.5 0.00 0.00 0.00 86 1012.7
20260905231603 75 347 1.7 3.5 0.00 0.00 0.00 85 1012.6
20260905231013 75 348 2.6 3.5 0.00 0.00 0.00 84 1012.6
20260905230003 76 344 1.7 3.5 0.00 0.00 0.00 83 1012.7
20260905225817 76 347 1.7 3.5 0.00 0.00 0.00 83 1012.7
20260905225015 76 357 2.6 4.3 0.00 0.00 0.00 83 1012.5
20260905224003 76 356 2.6 4.3 0.00 0.00 0.00 83 1012.5
20260905223413 76 355 2.6 5.2 0.00 0.00 0.00 83 1012.5
20260905222617 76 348 2.6 5.2 0.00 0.00 0.00 83 1012.4
20260905221603 77 353 2.6 5.2 0.00 0.00 0.00 82 1012.3
20260905221014 77 349 2.6 4.3 0.00 0.00 0.00 82 1012.3
20260905220213 78 346 2.6 4.3 0.00 0.00 0.00 81 1012.1
20260905215603 78 348 2.6 4.3 0.00 0.00 0.00 80 1012.0
20260905214803 78 348 2.6 4.3 0.00 0.00 0.00 81 1011.9
20260905214003 78 349 2.6 5.2 0.00 0.00 0.00 80 1011.9
20260905213203 78 357 2.6 5.2 0.00 0.00 0.00 80 1012.0
20260905212403 78 354 3.5 5.2 0.00 0.00 0.00 79 1012.0
20260905211603 79 350 3.5 5.2 0.00 0.00 0.00 78 1012.0
20260905210803 79 350 2.6 4.3 0.00 0.00 0.00 78 1011.9
20260905210213 79 353 3.5 6.1 0.00 0.00 0.00 77 1011.9
20260905205603 80 353 3.5 5.2 0.00 0.00 0.00 77 1012.0
20260905204803 80 356 3.5 6.1 0.00 0.00 0.00 76 1011.9
20260905204215 80 351 3.5 5.2 0.00 0.00 0.00 75 1011.9
20260905203203 81 352 2.6 4.3 0.00 0.00 0.00 75 1011.9
20260905202403 82 2 3.5 6.1 0.00 0.00 0.00 73 1011.9
20260905201603 82 360 3.5 5.2 0.00 0.00 0.00 73 1011.8
20260905201015 82 358 2.6 5.2 0.00 0.00 0.00 72 1011.9
20260905200214 83 353 2.6 4.3 0.00 0.00 0.00 72 1011.9
20260905195813 83 355 2.6 5.2 0.00 0.00 0.00 71 1011.9
20260905194803 83 356 2.6 4.3 0.00 0.00 0.00 71 1012.0
20260905194003 83 354 2.6 4.3 0.00 0.00 0.00 71 1012.0
20260905193415 83 351 2.6 4.3 0.00 0.00 0.00 72 1012.1
20260905192613 83 346 2.6 4.3 0.00 0.00 0.00 70 1012.2
20260905191812 84 357 2.6 5.2 0.00 0.00 0.00 70 1012.2
20260905190803 84 343 2.6 4.3 0.00 0.00 0.00 71 1012.2
20260905190215 85 356 2.6 4.3 0.00 0.00 0.00 69 1012.2
20260905185603 85 3 2.6 5.2 0.00 0.00 0.00 70 1012.1
20260905185013 85 8 2.6 5.2 0.00 0.00 0.00 68 1012.1
20260905184217 85 353 2.6 4.3 0.00 0.00 0.00 71 1012.2
20260905183203 85 1 2.6 4.3 0.00 0.00 0.00 71 1012.1
20260905182403 84 357 0.9 3.5 0.00 0.00 0.00 73 1012.2
20260905181813 84 352 1.7 3.5 0.00 0.00 0.00 73 1012.2
20260905180803 84 352 1.7 3.5 0.00 0.00 0.00 71 1012.3
20260905180215 84 1 2.6 4.3 0.00 0.00 0.00 72 1012.3
20260905175815 84 360 1.7 4.3 0.00 0.00 0.00 70 1012.4
20260905174803 84 15 0.9 3.5 0.00 0.00 0.00 74 1012.4
20260905174217 83 11 1.7 3.5 0.00 0.00 0.00 73 1012.4
20260905173203 83 6 1.7 3.5 0.00 0.00 0.00 73 1012.5
20260905172403 83 3 0.9 2.6 0.00 0.00 0.00 72 1012.5
20260905171813 83 0 0.0 0.0 0.00 0.00 0.00 76 1012.5
20260905171017 82 0 0.0 0.0 0.00 0.00 0.00 75 1012.6
20260905170216 82 0 0.0 0.0 0.00 0.00 0.00 76 1012.6
20260905165603 82 0 0.0 0.0 0.00 0.00 0.00 76 1012.8
20260905164803 81 153 0.0 1.7 0.00 0.00 0.00 78 1012.9
20260905164213 81 153 0.0 1.7 0.00 0.00 0.00 77 1012.8
20260905163417 81 0 0.0 0.0 0.00 0.00 0.00 77 1012.8
20260905162403 81 0 0.0 0.0 0.00 0.00 0.00 78 1012.8
20260905161603 81 0 0.0 0.0 0.00 0.00 0.00 78 1012.8
20260905161013 81 20 0.0 0.9 0.00 0.00 0.00 79 1012.8
20260905160217 81 20 0.9 2.6 0.00 0.00 0.00 80 1012.8
20260905155604 80 20 0.9 2.6 0.00 0.00 0.00 80 1012.8
20260905155015 80 20 0.0 1.7 0.00 0.00 0.00 80 1012.8
20260905154213 80 0 0.0 0.0 0.00 0.00 0.00 82 1012.8
20260905153203 80 0 0.0 0.0 0.00 0.00 0.00 83 1012.9
20260905152616 79 0 0.0 0.0 0.00 0.00 0.00 82 1012.8
20260905151815 79 0 0.0 0.0 0.00 0.00 0.00 84 1012.9
20260905151013 78 0 0.0 0.0 0.00 0.00 0.00 85 1012.6
20260905150217 78 0 0.0 0.0 0.00 0.00 0.00 86 1012.4
20260905145817 77 0 0.0 0.0 0.00 0.00 0.00 86 1012.4
20260905144803 77 0 0.0 0.0 0.00 0.00 0.00 87 1012.4
20260905144003 77 0 0.0 0.0 0.00 0.00 0.00 87 1012.5
20260905143413 77 0 0.0 0.0 0.00 0.00 0.00 88 1012.5
20260905142617 76 0 0.0 0.0 0.00 0.00 0.00 89 1012.8
20260905141815 76 0 0.0 0.0 0.00 0.00 0.00 89 1012.9
20260905141014 76 0 0.0 0.0 0.00 0.00 0.00 89 1012.5
20260905140213 76 0 0.0 0.0 0.00 0.00 0.00 90 1012.5
20260905135603 75 0 0.0 0.0 0.00 0.00 0.00 91 1012.5
20260905134803 75 0 0.0 0.0 0.00 0.00 0.00 92 1012.4
20260905134215 75 0 0.0 0.0 0.00 0.00 0.00 92 1012.4
20260905133203 74 0 0.0 0.0 0.00 0.00 0.00 92 1012.4
20260905132403 74 0 0.0 0.0 0.00 0.00 0.00 92 1012.4
20260905131603 74 182 0.0 2.6 0.00 0.00 0.00 92 1012.1
20260905130803 73 180 0.9 2.6 0.00 0.00 0.00 92 1012.0
20260905130003 73 175 1.7 3.5 0.00 0.00 0.00 92 1012.0
20260905125603 73 175 2.6 5.2 0.00 0.00 0.00 92 1012.0
20260905125017 73 175 3.5 6.1 0.00 0.00 0.00 92 1012.1
20260905124003 73 172 2.6 5.2 0.00 0.00 0.00 93 1012.0
20260905123414 72 169 1.7 4.3 0.00 0.00 0.00 94 1011.9
20260905122613 72 171 1.7 3.5 0.00 0.00 0.00 95 1011.9
20260905121603 72 176 2.6 4.3 0.00 0.00 0.00 95 1011.8
20260905120804 72 174 2.6 5.2 0.00 0.00 0.00 95 1011.6
20260905120214 72 173 2.6 4.3 0.00 0.00 0.00 96 1011.6
20260905115603 72 174 2.6 4.3 0.00 0.00 0.00 96 1011.6
20260905114803 72 170 1.7 3.5 0.00 0.00 0.00 96 1011.5